EDT,Max TemperatureF,Mean TemperatureF,Min TemperatureF,Max Dew PointF,MeanDew PointF,Min DewpointF,Max Humidity, Mean Humidity, Min Humidity, Max Sea Level PressureIn, Mean Sea Level PressureIn, Min Sea Level PressureIn, Max VisibilityMiles, Mean VisibilityMiles, Min VisibilityMiles, Max Wind SpeedMPH, Mean Wind SpeedMPH, Max Gust SpeedMPH,PrecipitationIn, CloudCover, Events, WindDirDegrees
2013-3-1,46,42,39,32,30,26,67,60,47,29.89,29.81,29.73,10,10,10,12,8,21,0.00,8,,305
2013-3-2,39,36,33,26,24,21,69,62,49,29.89,29.86,29.82,10,10,10,13,8,18,0.00,6,,302
2013-3-3,42,37,32,24,22,19,70,57,41,29.92,29.86,29.80,10,10,10,16,8,23,0.00,6,,312
2013-3-4,45,38,31,20,19,16,60,47,35,30.04,29.98,29.92,10,10,10,20,10,30,0.00,2,,309
2013-3-5,51,40,30,32,22,12,77,47,20,30.09,30.00,29.85,10,10,10,9,4,18,0.00,3,,45
2013-3-6,41,38,34,38,36,33,100,93,73,29.99,29.76,29.63,10,7,1,21,10,33,0.00,7,,11
2013-3-7,52,45,38,34,30,26,75,58,38,30.15,30.08,29.99,10,10,10,20,9,29,0.00,4,,333
2013-3-8,51,44,37,32,29,24,79,55,42,30.27,30.18,30.13,10,10,10,22,10,33,0.00,4,,332
2013-3-9,63,50,37,36,26,21,81,47,22,30.35,30.29,30.25,10,10,10,13,5,17,0.00,0,,340
2013-3-10,66,48,30,40,27,17,96,51,17,30.34,30.29,30.23,10,10,10,13,2,17,0.00,0,,154
2013-3-11,63,54,45,51,47,40,93,77,61,30.27,30.11,29.97,10,10,7,10,5,18,0.00,5,,154
2013-3-12,60,52,45,60,47,32,100,73,52,29.97,29.85,29.70,10,9,2,17,9,24,0.00,6,,224
2013-3-13,52,42,32,35,28,20,94,56,30,30.07,29.97,29.90,10,10,7,17,7,29,0.00,2,,288
2013-3-14,47,40,34,22,18,15,54,41,29,30.13,30.08,30.03,10,10,10,20,10,32,0.00,1,,292
2013-3-15,59,44,29,36,26,19,85,49,29,30.10,29.96,29.79,10,10,10,12,3,21,0.00,1,,218
2013-3-16,59,48,38,42,37,34,93,67,48,29.94,29.78,29.65,10,10,10,10,3,16,0.00,7,,63
2013-3-17,43,38,34,36,32,27,92,72,56,30.29,30.13,29.92,10,10,7,13,5,20,0.00,6,,10
2013-3-18,40,37,34,39,32,21,100,80,50,30.34,30.17,29.69,10,8,2,16,4,28,0.00,8,,73
2013-3-19,61,50,39,41,32,11,100,62,17,29.91,29.80,29.71,10,9,5,17,5,30,0.00,4,,287
2013-3-20,53,45,37,20,16,14,41,30,21,30.01,29.92,29.78,10,10,10,15,8,25,0.00,3,,263
2013-3-21,39,36,32,32,14,9,88,43,32,29.91,29.82,29.77,10,10,7,16,10,24,0.00,5,,317
2013-3-22,48,40,31,22,18,11,57,44,32,30.01,29.93,29.89,10,10,10,13,7,23,0.00,1,,290
2013-3-23,54,40,27,26,24,23,86,52,31,30.04,29.99,29.92,10,10,10,15,4,22,0.00,0,,316
2013-3-24,45,38,30,37,27,23,100,69,43,30.01,29.86,29.68,10,9,4,9,2,,0.00,3,,78
2013-3-25,39,36,34,38,36,34,100,98,93,29.70,29.59,29.52,10,6,0,8,3,,0.00,8,,327
2013-3-26,52,42,33,37,33,26,100,68,37,29.98,29.84,29.70,10,10,3,13,5,18,0.00,5,,303
2013-3-27,52,46,40,36,30,25,76,55,39,30.12,30.05,29.99,10,10,7,18,9,25,0.00,4,,296
2013-3-28,51,46,40,32,30,26,69,55,39,30.23,30.14,30.09,10,10,10,16,7,24,0.00,6,,298
2013-3-29,57,48,39,34,30,27,74,49,33,30.26,30.21,30.15,10,10,10,15,6,21,0.00,5,,309
2013-3-30,61,48,34,37,31,23,90,60,23,30.23,30.18,30.12,10,10,10,8,1,17,0.00,3,,277
2013-3-31,59,48,38,54,43,33,100,82,56,30.14,29.93,29.76,10,9,2,9,1,20,0.00,5,,195